Weather in Cheyenne

United States     41˚08′04″N   104˚47′53″W
temp.,
°C
wind,
m/s
gust,
m/s
humid.,
%
clouds,
%
prec.,
mm/h
press.,
hPa
HPBL,
m
27 november, fri
fri2700:00−4˚wnw5113832 0.0 1028344
03:00−4˚wnw59410 0.0 1029169
06:00−5˚wsw45520 0.0 103099
09:00−3˚wsw47420 0.0 1030181
12:00+4˚wsw24160 0.0 1026635
15:00+7˚wnw23120 0.0 1022839
18:00−1˚nw22260 0.0 102429
21:00−1˚sw33280 0.0 102627
28 november, sat
sat2800:00wsw34300 0.0 102529
03:00w46300 0.0 102571
06:00+1˚wnw58300 0.0 1024102
09:00+2˚wnw57280 0.0 102388
12:00+11˚w45180 0.0 1019370
15:00+12˚wnw44170 0.0 1015814
18:00+5˚w46320 0.0 101694
21:00+3˚nnw511330 0.0 1019231
29 november, sun
sun2900:00+2˚nnw1016300 0.0 1023578
03:00−1˚n714420 0.0 1027371
06:00−2˚n7135619 0.0 1030490
09:00−3˚n81158100 0.0 1033529
12:00n673792 0.0 1033834
15:00+1˚n45371 0.0 10311071
18:00−3˚ene23520 0.0 103222
21:00−3˚ssw34510 0.0 103457
30 november, mon
mon3000:00−3˚sw610530 0.0 1034197
03:00−4˚sw69530 0.0 1032140
06:00−3˚sw57350 0.0 103087
09:00sw59150 0.0 1027142
12:00+9˚w101590 0.0 1020722
15:00+9˚w1116130 0.0 1015909
18:00+4˚wsw920230 0.0 1015584
21:00+4˚wsw6172637 0.0 1014554
1 december, tue
tue100:00+3˚wsw7182759 0.0 1013667
03:00+1˚nw353489 0.0 101361
06:00−1˚wnw11205151 0.0 10171342
09:00−3˚nnw5126536 0.2 10211293
12:00−1˚nnw12153818 0.2 10211815
15:00−1˚nw11133699 0.0 10201818
18:00−3˚nnw8133888 0.0 1022987
21:00−6˚nnw712641 0.0 10251003